Wind_Speed
80 77 72 61 53 49 47 48 52 53 52 52 53 53 54 54 53 51 51 51 50 48 47 48 46 44 44 43 43 42 38 36 36 36 35 34 33 34 37 39 41 42
82 77 72 64 55 50 46 47 51 52 53 55 56 55 53 52 52 51 51 51 49 47 46 46 45 43 42 41 41 41 38 37 37 36 35 35 35 37 40 42 43 43
78 69 66 65 62 56 50 48 50 51 52 55 56 54 52 51 50 49 49 49 47 46 45 44 43 42 41 40 40 40 40 38 38 37 37 38 39 41 43 43 43 44
70 60 59 61 66 68 64 56 52 51 50 51 54 54 51 49 49 48 47 47 46 46 46 45 43 42 41 40 40 40 41 40 39 39 39 40 42 43 44 43 43 43
68 62 59 57 60 67 72 69 62 57 52 49 51 54 51 48 47 47 47 47 47 47 48 46 44 43 41 39 39 40 41 41 40 40 40 42 43 43 43 43 43 43
69 64 57 54 54 57 61 67 68 64 58 55 53 53 50 46 44 46 47 48 47 48 49 47 45 43 42 39 38 40 41 40 40 40 41 42 43 43 43 42 42 42
68 64 58 54 53 53 53 58 63 63 61 60 59 56 51 46 43 44 47 48 48 48 49 48 45 43 41 40 39 40 40 40 40 40 41 42 43 43 43 42 42 42
68 65 62 57 53 52 51 54 59 60 59 58 57 56 53 50 48 45 45 48 49 48 47 47 45 44 42 40 40 39 40 40 40 40 41 41 42 42 43 43 42 42
69 66 64 60 55 53 54 56 58 61 61 59 57 56 54 53 53 50 47 47 49 48 46 45 44 44 42 40 39 39 39 39 39 40 41 41 41 42 43 43 43 43
72 68 65 62 61 60 62 62 60 62 64 63 60 58 56 54 53 52 50 49 49 48 45 43 44 44 43 40 39 39 39 39 40 41 41 40 41 42 43 43 44 44
75 72 66 64 66 67 68 68 69 67 65 64 62 59 58 55 51 50 51 49 49 48 46 44 44 44 43 42 41 40 39 38 40 42 41 40 40 41 42 43 44 43
78 76 70 68 70 71 71 71 72 70 67 67 65 60 58 56 51 49 49 48 48 48 47 45 45 45 45 45 43 41 38 37 40 41 39 38 37 39 42 42 42 42
80 78 75 75 76 75 74 73 72 70 68 67 66 61 58 56 52 49 47 47 48 48 47 47 46 46 47 46 45 41 38 37 39 40 38 35 34 38 41 41 40 40
83 82 80 80 79 77 77 77 74 72 71 68 64 59 56 54 53 51 48 47 47 47 47 48 49 50 50 48 46 43 39 37 37 38 36 33 34 38 40 39 38 37
88 86 83 83 80 76 78 79 76 74 75 72 66 61 57 51 47 47 47 46 45 44 45 46 49 52 53 50 47 45 42 39 38 37 34 32 34 37 39 38 36 35
93 89 84 84 83 78 78 80 78 75 75 73 69 66 61 52 43 41 43 43 40 38 39 41 45 49 52 49 47 48 46 43 41 38 35 33 33 37 39 37 34 32
97 93 87 86 85 81 80 82 81 76 74 73 71 67 63 57 52 49 48 47 44 41 38 37 39 43 46 46 48 49 49 48 47 43 39 35 34 37 38 35 34 32
103 98 93 90 88 85 84 83 83 80 76 74 72 68 64 59 56 58 58 56 56 55 51 46 42 40 40 40 45 50 51 51 51 49 46 40 36 38 38 35 34 33
110 106 101 96 93 91 89 86 84 82 79 77 75 73 69 62 56 56 58 59 59 61 63 61 55 48 41 37 39 45 49 51 52 52 49 43 38 38 38 34 31 30
113 111 107 102 98 95 94 92 87 84 81 79 78 78 74 68 61 56 56 58 59 61 63 63 60 56 51 45 41 40 42 45 49 50 47 43 40 39 38 35 32 29
113 112 108 104 100 96 95 94 91 88 84 81 81 80 77 72 64 57 54 55 58 61 63 64 62 59 59 58 54 49 43 41 44 46 44 42 41 40 40 40 38 34
113 112 109 105 101 98 96 94 93 90 86 82 80 78 75 71 64 56 53 54 56 58 59 61 62 61 63 64 63 58 50 44 44 45 43 41 41 42 43 44 44 41
113 112 110 107 103 100 98 96 95 94 90 85 81 75 70 66 61 56 53 52 54 56 57 60 62 63 64 64 61 57 52 48 48 46 43 42 42 44 46 47 47 46
113 111 110 107 105 103 100 97 97 96 94 90 86 81 73 65 60 57 54 52 52 54 57 61 63 63 64 63 60 56 53 50 49 48 44 43 43 46 49 49 49 48
113 112 110 108 106 104 102 99 97 96 94 91 89 87 80 70 63 61 59 56 55 55 57 62 65 64 63 63 62 60 56 51 49 49 49 47 44 45 49 51 50 49
112 112 110 109 108 105 103 101 98 95 92 89 88 89 85 75 68 66 64 63 61 60 60 63 67 67 64 63 63 63 62 58 54 53 54 55 52 47 47 49 50 49
Wind_Direction
219 221 223 228 236 240 238 238 241 244 247 250 249 247 245 245 246 247 250 253 256 258 259 260 259 257 258 261 263 267 270 273 274 276 279 282 285 290 295 298 300 301
221 220 222 227 234 240 241 240 242 247 251 251 248 247 248 248 248 249 251 253 254 255 255 256 258 257 258 261 264 269 273 274 276 278 282 286 290 294 296 297 298 299
224 224 225 230 235 240 243 244 244 249 255 255 251 249 248 248 249 249 249 250 249 249 250 252 255 257 259 261 264 269 273 275 278 281 285 288 291 294 295 296 296 298
225 232 237 240 241 241 242 244 249 252 255 255 252 250 248 248 249 248 246 246 244 245 247 248 252 255 258 260 264 269 274 276 279 283 286 288 290 292 292 294 295 296
221 232 242 249 251 246 241 242 247 251 253 253 251 250 250 248 247 245 244 242 241 244 247 247 250 254 256 259 263 268 271 275 279 282 285 287 288 289 291 292 294 294
217 224 233 243 252 253 247 244 246 248 252 256 253 251 251 247 241 238 239 241 241 243 247 249 250 253 255 258 264 268 271 275 279 282 283 285 286 288 290 291 292 292
214 215 219 226 239 248 250 249 249 250 255 258 256 253 250 243 237 236 236 239 241 242 245 250 252 253 253 257 263 267 270 274 278 280 281 283 285 287 288 289 290 291
213 211 211 215 223 235 242 247 249 250 252 254 253 252 249 242 241 242 239 238 239 241 244 249 253 253 253 257 262 266 270 273 276 279 281 282 283 285 286 287 289 291
213 210 209 209 213 223 231 239 247 250 251 252 250 250 249 245 243 245 244 241 239 241 245 249 252 251 252 256 261 265 269 273 275 278 280 281 282 283 284 286 288 291
214 213 209 206 208 214 220 226 236 244 249 249 248 247 247 246 245 245 245 243 241 241 246 250 250 249 251 256 261 267 271 272 274 275 277 280 281 282 283 286 289 292
215 215 212 209 210 213 216 218 223 231 238 241 242 244 246 246 246 245 244 243 241 242 245 249 249 248 252 258 264 269 272 272 272 273 275 279 280 281 285 288 290 294
214 215 215 213 214 217 219 220 222 225 230 235 237 241 243 245 246 245 243 241 241 243 245 247 248 250 254 260 266 269 270 270 270 271 274 277 278 283 289 290 290 294
213 215 216 216 218 221 223 223 224 226 229 232 236 240 243 243 244 245 244 241 241 244 246 247 249 252 257 262 266 267 266 266 266 269 274 275 276 285 290 289 289 294
211 214 217 217 220 225 227 225 225 227 229 232 235 241 245 244 242 243 243 242 244 246 248 249 250 252 257 262 265 265 263 261 262 266 271 272 275 283 286 285 287 292
211 215 218 218 220 227 229 226 225 227 229 231 233 238 243 244 244 246 246 245 247 251 252 253 253 254 256 259 263 263 260 258 258 263 268 270 273 279 282 282 284 287
211 215 217 218 221 227 228 225 225 227 229 230 233 236 240 243 247 253 254 251 252 257 261 260 259 257 256 256 258 260 258 256 256 260 265 269 272 276 277 278 280 281
211 214 217 219 222 226 227 224 224 226 227 230 233 235 238 239 239 240 243 244 245 251 262 268 267 266 264 258 255 257 257 256 256 260 264 267 269 271 272 274 276 277
212 214 216 218 221 224 226 226 225 224 224 227 231 234 236 239 238 236 236 236 235 237 244 252 259 268 275 269 259 259 260 259 259 262 265 265 265 267 268 269 273 278
216 217 218 219 221 223 226 227 226 224 223 225 228 232 234 237 241 241 241 240 237 233 235 240 245 254 269 275 267 264 266 265 264 265 267 265 261 262 263 265 273 282
218 219 220 221 221 223 225 227 226 225 224 224 227 231 233 235 237 241 243 244 243 239 237 238 239 242 251 261 265 268 272 273 270 268 267 263 259 257 256 259 269 280
218 219 220 221 221 222 225 227 227 226 226 226 228 231 233 234 235 238 242 243 245 244 241 239 237 236 239 246 251 255 264 272 273 271 268 262 257 254 252 255 262 271
219 219 220 220 221 222 224 226 227 227 226 227 229 231 231 231 232 235 238 239 242 245 244 238 236 235 237 241 243 245 252 261 266 268 268 262 255 251 251 255 260 267
219 220 220 220 221 221 222 225 227 228 227 227 229 230 229 229 230 231 233 234 236 241 243 238 236 238 240 241 241 242 246 251 256 260 264 263 256 250 251 256 261 266
219 219 220 220 220 221 222 223 226 228 229 228 229 229 228 228 228 228 228 230 230 235 240 239 237 239 242 243 242 241 241 245 251 256 261 262 258 252 251 255 260 266
218 219 219 219 220 220 221 222 224 227 228 228 228 228 228 227 227 226 226 228 228 230 236 239 238 239 243 245 245 244 242 243 248 253 257 259 259 256 253 254 259 265
218 218 219 219 219 220 221 222 223 226 228 228 227 227 227 227 226 225 226 228 229 230 233 238 240 240 242 245 247 247 246 246 247 249 253 257 258 260 259 257 259 263
Height
10666 10673 10680 10684 10687 10690 10693 10696 10699 10701 10705 10709 10711 10714 10717 10720 10724 10727 10728 10730 10733 10735 10735 10736 10739 10741 10742 10743 10744 10745 10747 10748 10749 10750 10751 10752 10752 10752 10752 10751 10750 10748
10660 10669 10677 10680 10683 10687 10690 10693 10695 10696 10701 10704 10706 10709 10713 10716 10720 10722 10724 10726 10728 10730 10731 10732 10734 10737 10738 10740 10741 10742 10743 10745 10746 10747 10748 10749 10749 10749 10749 10748 10747 10745
10660 10671 10678 10680 10682 10685 10687 10689 10691 10693 10696 10699 10702 10706 10709 10712 10715 10718 10720 10721 10723 10725 10727 10728 10730 10732 10735 10736 10737 10739 10740 10741 10742 10744 10745 10745 10746 10746 10746 10745 10744 10742
10665 10673 10677 10680 10682 10682 10684 10686 10688 10690 10692 10695 10698 10700 10704 10708 10710 10713 10715 10717 10719 10720 10722 10725 10727 10729 10731 10733 10734 10735 10736 10738 10739 10740 10742 10742 10743 10743 10743 10742 10741 10739
10661 10667 10672 10676 10676 10677 10680 10684 10686 10687 10689 10691 10693 10695 10699 10703 10706 10708 10710 10713 10715 10716 10718 10721 10724 10726 10728 10730 10732 10733 10733 10735 10737 10738 10739 10740 10740 10740 10740 10739 10738 10736
10652 10657 10665 10671 10671 10672 10676 10681 10682 10684 10685 10687 10689 10691 10695 10698 10701 10703 10705 10708 10711 10712 10713 10717 10720 10723 10726 10728 10729 10730 10731 10732 10734 10735 10736 10737 10737 10737 10737 10736 10735 10733
10646 10648 10653 10661 10667 10671 10675 10678 10678 10680 10681 10682 10684 10687 10690 10694 10697 10698 10700 10703 10706 10709 10710 10712 10716 10720 10722 10724 10726 10727 10728 10729 10731 10732 10733 10734 10734 10733 10733 10732 10731 10730
10638 10640 10641 10648 10658 10665 10672 10675 10674 10673 10675 10677 10679 10681 10684 10689 10692 10694 10696 10698 10701 10705 10707 10709 10712 10715 10718 10720 10722 10723 10724 10726 10728 10729 10730 10730 10730 10730 10729 10728 10728 10727
10629 10632 10633 10638 10645 10653 10661 10668 10669 10668 10667 10670 10672 10674 10677 10682 10686 10689 10692 10694 10697 10700 10704 10706 10708 10711 10713 10716 10717 10719 10721 10722 10724 10725 10725 10726 10727 10726 10726 10725 10724 10724
10622 10625 10627 10630 10633 10637 10643 10652 10658 10657 10657 10660 10664 10667 10671 10675 10679 10684 10688 10691 10693 10696 10699 10702 10704 10706 10709 10711 10713 10715 10717 10719 10720 10721 10721 10722 10723 10723 10722 10722 10721 10721
10615 10620 10624 10625 10625 10627 10630 10635 10640 10642 10645 10650 10655 10660 10664 10669 10674 10679 10683 10687 10689 10691 10694 10696 10699 10702 10705 10707 10709 10712 10714 10716 10716 10716 10717 10719 10719 10719 10719 10719 10718 10717
10607 10613 10617 10618 10619 10622 10625 10628 10631 10635 10639 10643 10647 10653 10658 10663 10669 10674 10678 10683 10685 10687 10689 10692 10695 10697 10700 10703 10705 10708 10710 10711 10711 10712 10713 10715 10716 10716 10715 10715 10715 10714
10601 10605 10608 10609 10612 10616 10620 10625 10628 10633 10636 10639 10643 10648 10653 10659 10665 10670 10674 10678 10681 10683 10686 10688 10691 10693 10695 10698 10700 10703 10706 10707 10707 10707 10709 10711 10712 10712 10711 10711 10711 10711
10593 10596 10598 10601 10605 10610 10615 10620 10624 10628 10632 10636 10640 10645 10649 10654 10659 10663 10668 10672 10676 10679 10682 10684 10686 10688 10691 10693 10695 10697 10700 10703 10703 10703 10705 10707 10708 10708 10707 10707 10708 10708
10584 10587 10591 10595 10599 10605 10609 10614 10618 10622 10626 10632 10637 10641 10645 10650 10654 10658 10662 10666 10670 10674 10677 10680 10682 10683 10685 10688 10690 10691 10694 10698 10699 10699 10701 10703 10704 10703 10703 10703 10704 10704
10575 10580 10585 10589 10594 10599 10603 10607 10612 10617 10622 10628 10633 10637 10641 10647 10651 10654 10657 10661 10666 10670 10672 10674 10677 10678 10680 10683 10685 10685 10688 10692 10694 10695 10697 10699 10699 10699 10699 10699 10700 10701
10565 10570 10575 10581 10586 10591 10595 10599 10605 10611 10618 10623 10628 10633 10637 10642 10645 10646 10649 10653 10659 10665 10668 10669 10671 10672 10674 10678 10680 10679 10682 10685 10688 10690 10693 10695 10696 10695 10695 10696 10697 10697
10554 10559 10565 10572 10577 10582 10587 10592 10598 10604 10610 10615 10621 10627 10633 10637 10639 10639 10641 10644 10648 10654 10659 10662 10665 10668 10669 10672 10674 10674 10676 10679 10682 10685 10688 10691 10692 10692 10692 10693 10693 10692
10544 10550 10557 10564 10569 10574 10579 10585 10593 10599 10604 10609 10614 10619 10625 10632 10636 10637 10639 10641 10643 10646 10650 10654 10659 10664 10666 10667 10668 10669 10670 10673 10677 10680 10683 10687 10689 10688 10688 10690 10689 10688
10535 10542 10549 10556 10562 10567 10572 10579 10587 10593 10598 10603 10608 10612 10619 10625 10630 10634 10637 10640 10642 10645 10647 10649 10653 10658 10661 10663 10664 10665 10667 10670 10672 10675 10678 10682 10684 10684 10685 10685 10685 10683
10526 10533 10540 10548 10555 10562 10568 10574 10581 10587 10593 10597 10601 10606 10613 10619 10625 10631 10635 10638 10640 10642 10645 10647 10649 10652 10653 10654 10657 10662 10666 10668 10669 10670 10674 10677 10679 10680 10681 10681 10680 10680
10516 10523 10532 10541 10548 10555 10562 10568 10574 10581 10587 10591 10595 10601 10608 10614 10621 10626 10630 10634 10636 10637 10641 10643 10645 10646 10645 10643 10647 10655 10663 10666 10665 10665 10669 10672 10674 10675 10676 10676 10676 10676
10508 10516 10524 10533 10541 10548 10555 10561 10566 10573 10579 10585 10591 10598 10604 10609 10615 10620 10624 10628 10631 10633 10636 10638 10639 10640 10640 10639 10642 10649 10656 10659 10659 10659 10664 10667 10669 10671 10672 10672 10672 10671
10499 10508 10517 10526 10534 10540 10547 10553 10558 10563 10570 10577 10584 10592 10599 10604 10609 10615 10620 10623 10625 10627 10629 10631 10633 10635 10636 10638 10641 10645 10649 10652 10653 10655 10659 10662 10663 10665 10666 10667 10667 10666
10490 10500 10509 10518 10525 10532 10538 10545 10551 10555 10561 10569 10576 10583 10590 10596 10602 10609 10615 10617 10620 10622 10623 10625 10627 10630 10632 10636 10639 10642 10646 10650 10653 10655 10657 10657 10658 10659 10660 10661 10661 10661
10484 10493 10502 10509 10516 10523 10530 10538 10544 10549 10555 10563 10568 10574 10581 10588 10595 10602 10608 10611 10613 10615 10618 10619 10621 10623 10628 10631 10634 10638 10642 10646 10651 10654 10654 10653 10653 10654 10655 10656 10656 10656